Regional Weather Roundup
Issued by NWS State College, PA

Home | Current Version | Previous Version | Graphics & Text | Print | Product List | Glossary Off
Versions: 1 2 3 4 5 6 7 8 9 10 11 12 13 14 15 16 17 18 19 20 21 22 23 24 25 26 27 28 29 30 31 32 33 34 35 36 37 38 39 40 41 42 43 44 45 46 47 48 49 50

942
ASUS41 KCTP 060203
RWRCTP

REGIONAL WEATHER ROUNDUP
NATIONAL WEATHER SERVICE STATE COLLEGE PA
900 PM EST MON DEC 05 2016

Note: "fair" indicates few or no clouds below 12,000 feet with no
significant weather and/or obstructions to visibility.

* = STATION THAT DOES NOT REPORT PRECIPITATION /E.G. RAIN...SNOW...ETC/
    THUNDER OR FOG.

PAZ002>004-007>009-013>016-020>023-029>032-060300-
WESTERN PENNSYLVANIA

CITY           SKY/WX    TMP DP  RH WIND       PRES   REMARKS
ERIE           CLOUDY    38  29  70 S6        30.10S
MEADVILLE      CLEAR     34  27  75 CALM      30.08S
FRANKLIN*        N/A     32  25  74 CALM      30.09S
NEW CASTLE     FAIR      28  26  92 CALM      30.10S
BEAVER COUNTY  CLEAR     32  28  86 CALM      30.09R
BUTLER*        CLOUDY    28  23  80 CALM      30.12R
PITTSBURGH INT CLOUDY    36  29  75 NE3       30.08S
PITTSBURGH     PTCLDY    36  26  67 NE3       30.07S
INDIANA*       PTCLDY    32  30  93 CALM      30.12R
LATROBE        CLEAR     32  28  86 CALM      30.10S
WASHINGTON CO* PTCLDY    28  25  86 CALM      30.08F
$$

PAZ004>006-010>012-017>019-024>028-033>037-041-042-045-046-049>053-060300-
CENTRAL PENNSYLVANIA

CITY           SKY/WX    TMP DP  RH WIND       PRES   REMARKS
BRADFORD       CLOUDY    33  28  81 W3        30.05S
DUBOIS         CLOUDY    33  28  81 CALM      30.06F
CLEARFIELD     CLOUDY    31  29  92 CALM      30.09S
JOHNSTOWN      CLOUDY    33  27  78 N5        30.04F
ALTOONA        CLOUDY    36  28  73 CALM      30.08S
STATE COLLEGE  PTCLDY    36  28  75 W7        30.09S
WILLIAMSPORT   CLOUDY    40  31  70 CALM      30.10S
SELINSGROVE    CLOUDY    32  31  96 N3        30.11S
FT INDIANTOWN  PTCLDY    39  31  73 SW3       30.09F
CAPITAL CITY   PTCLDY    39  29  67 SW5       30.11S
HARRISBURG     MOCLDY    41  33  73 CALM      30.10S
YORK           PTCLDY    33  31  92 NW3       30.10S
$$

PAZ038>040-043-044-047-048-054-055-060>062-067>071-060300-
EASTERN PENNSYLVANIA

CITY           SKY/WX    TMP DP  RH WIND       PRES   REMARKS
SCRANTON       CLOUDY    38  29  70 SW6       30.07R
MOUNT POCONO   CLOUDY    32  25  75 W6        30.02R
ALLENTOWN      MOCLDY    37  28  70 SW3       30.10R
QUAKERTOWN*    MOCLDY    39  28  65 CALM      30.10R
READING        CLOUDY    38  29  70 NW6       30.10R
LANCASTER      PTCLDY    39  31  72 NW3       30.10S
COATESVILLE    CLOUDY    41  30  65 N6        30.10R
POTTSTOWN      CLOUDY    38  31  76 CALM      30.11R
BLUE BELL      PTCLDY    36  32  87 CALM      30.09S
DOYLESTOWN     PTCLDY    41  31  67 NW5       30.08R
WILLOW GROVE   NOT AVBL
NORTH PHILA    PTCLDY    42  34  73 NW6       30.11R
PHILADELPHIA   CLOUDY    43  32  65 NW8       30.11R
$$




USA.gov is the U.S. government's official web portal to all federal, state and local government web resources and services.